^^
Grace C. Lehan Memorial Weather Station Historical Data
Daily Summary for January 27, 2021 Units:  Metric    English   Both
Daily Weekly Monthly Yearly
  High: Low: Average:
Temperature: 3.1 °C -1.5 °C 0.1 °C
Dew Point: 0 °C -3.3 °C -1.9 °C
Humidity: 93% 79.6% 87%
Wind Speed: 9.7km/h 0km/h 1.8km/h
Wind Gust: 22.5km/h - -
Wind- - NNW
Pressure: 1018.5 hPa 1010.4 hPa -
Precipitation: 3.05 mm    
 
 
Tabular Data for January 27, 2021
Time Temperature Dew Point Pressure Wind Wind Speed Wind Gust Humidity Rainfall Rate (Hourly) solar
00:04 -1.3 °C -2.3 °C 1010.7 hPa NNW 1 km/h 6.4 km/h 93% 0 mm 0 W/m2
00:09 -1.3 °C -2.4 °C 1010.7 hPa NNW 0.6 km/h 4.8 km/h 92% 0 mm 0 W/m2
00:14 -1.4 °C -2.5 °C 1010.7 hPa NNW 1.4 km/h 6.4 km/h 92% 0 mm 0 W/m2
00:19 -1.4 °C -2.6 °C 1010.7 hPa NNW 2.6 km/h 9.7 km/h 92% 0 mm 0 W/m2
00:24 -1.4 °C -2.6 °C 1010.4 hPa NNW 1.1 km/h 9.7 km/h 92% 0 mm 0 W/m2
00:29 -1.4 °C -2.6 °C 1010.4 hPa NNW 1 km/h 9.7 km/h 92% 0 mm 0 W/m2
00:34 -1.5 °C -2.6 °C 1010.4 hPa NNW 0.2 km/h 9.7 km/h 92% 0 mm 0 W/m2
00:39 -1.5 °C -2.6 °C 1010.4 hPa NNW 1.8 km/h 9.7 km/h 92% 0 mm 0 W/m2
00:44 -1.5 °C -2.6 °C 1010.7 hPa NNW 0.2 km/h 9.7 km/h 92% 0 mm 0 W/m2
00:49 -1.5 °C -2.6 °C 1010.7 hPa NNW 1.8 km/h 9.7 km/h 92% 0 mm 0 W/m2
00:54 -1.5 °C -2.6 °C 1010.4 hPa NNW 1 km/h 9.7 km/h 92% 0 mm 0 W/m2
00:59 -1.5 °C -2.6 °C 1010.7 hPa NNW 0.2 km/h 9.7 km/h 92% 0 mm 0 W/m2
01:04 -1.5 °C -2.6 °C 1010.4 hPa NNW 1.9 km/h 9.7 km/h 92% 0 mm 0 W/m2
01:09 -1.5 °C -2.6 °C 1010.7 hPa NNW 0.5 km/h 8 km/h 92% 0 mm 0 W/m2
01:14 -1.4 °C -2.6 °C 1010.7 hPa NNW 1.1 km/h 8 km/h 92.1% 0 mm 0 W/m2
01:19 -1.4 °C -2.4 °C 1010.7 hPa Calm   8 km/h 93% 0 mm 0 W/m2
01:24 -1.4 °C -2.4 °C 1010.7 hPa NNW 0.2 km/h 8 km/h 93% 0 mm 0 W/m2
01:29 -1.4 °C -2.4 °C 1010.7 hPa NNW 0.2 km/h 8 km/h 93% 0 mm 0 W/m2
01:34 -1.4 °C -2.4 °C 1010.7 hPa Calm   8 km/h 93% 0 mm 0 W/m2
01:39 -1.4 °C -2.4 °C 1011.1 hPa NNW 1 km/h 4.8 km/h 93% 0 mm 0 W/m2
01:44 -1.4 °C -2.4 °C 1011.1 hPa NNW 0.6 km/h 4.8 km/h 93% 0 mm 0 W/m2
01:49 -1.4 °C -2.4 °C 1011.1 hPa Calm   4.8 km/h 93% 0 mm 0 W/m2
01:54 -1.3 °C -2.3 °C 1011.1 hPa Calm   4.8 km/h 93% 0 mm 0 W/m2
01:59 -1.3 °C -2.3 °C 1011.1 hPa NNW 0.5 km/h 4.8 km/h 93% 0 mm 0 W/m2
02:04 -1.3 °C -2.3 °C 1010.7 hPa Calm   4.8 km/h 93% 0 mm 0 W/m2
02:09 -1.3 °C -2.3 °C 1011.1 hPa Calm     93% 0 mm 0 W/m2
02:14 -1.3 °C -2.3 °C 1011.1 hPa Calm   3.2 km/h 93% 0 mm 0 W/m2
02:19 -1.3 °C -2.3 °C 1011.1 hPa NNW 0.2 km/h 3.2 km/h 93% 0 mm 0 W/m2
02:24 -1.3 °C -2.3 °C 1011.4 hPa Calm   3.2 km/h 93% 0 mm 0 W/m2
02:29 -1.3 °C -2.3 °C 1011.4 hPa Calm   3.2 km/h 93% 0 mm 0 W/m2
02:34 -1.3 °C -2.3 °C 1011.4 hPa NNW 0.2 km/h 3.2 km/h 93% 0 mm 0 W/m2
02:39 -1.3 °C -2.3 °C 1011.4 hPa NNW 0.8 km/h 4.8 km/h 93% 0 mm 0 W/m2
02:44 -1.3 °C -2.3 °C 1011.4 hPa Calm   4.8 km/h 93% 0 mm 0 W/m2
02:49 -1.3 °C -2.3 °C 1011.1 hPa Calm   4.8 km/h 93% 0 mm 0 W/m2
02:54 -1.3 °C -2.3 °C 1011.4 hPa Calm   4.8 km/h 93% 0 mm 0 W/m2
02:59 -1.3 °C -2.3 °C 1011.4 hPa NNW 0.8 km/h 4.8 km/h 93% 0 mm 0 W/m2
03:04 -1.3 °C -2.3 °C 1011.4 hPa Calm   4.8 km/h 93% 0 mm 0 W/m2
03:09 -1.3 °C -2.3 °C 1011.4 hPa NNW 0.5 km/h 4.8 km/h 93% 0 mm 0 W/m2
03:14 -1.3 °C -2.3 °C 1011.4 hPa Calm   4.8 km/h 93% 0 mm 0 W/m2
03:19 -1.3 °C -2.3 °C 1011.4 hPa Calm   4.8 km/h 93% 0 mm 0 W/m2
03:24 -1.3 °C -2.3 °C 1011.7 hPa Calm   4.8 km/h 93% 0 mm 0 W/m2
03:29 -1.3 °C -2.3 °C 1011.7 hPa Calm   4.8 km/h 93% 0 mm 0 W/m2
03:34 -1.3 °C -2.3 °C 1011.7 hPa NNW 0.5 km/h 4.8 km/h 93% 0 mm 0 W/m2
03:39 -1.3 °C -2.3 °C 1011.7 hPa Calm   4.8 km/h 93% 0 mm 0 W/m2
03:44 -1.3 °C -2.3 °C 1011.7 hPa Calm   4.8 km/h 93% 0 mm 0 W/m2
03:49 -1.3 °C -2.3 °C 1011.7 hPa NNW 0.6 km/h 4.8 km/h 93% 0 mm 0 W/m2
03:54 -1.3 °C -2.3 °C 1011.7 hPa NNW 1.1 km/h 8 km/h 93% 0 mm 0 W/m2
03:59 -1.3 °C -2.3 °C 1011.7 hPa Calm   8 km/h 93% 0 mm 0 W/m2
04:00 -1.3 °C -2.3 °C 1011.7 hPa Calm   8 km/h 93% 0 mm 0 W/m2
04:09 -1.3 °C -2.3 °C 1011.7 hPa Calm   1.6 km/h 93% 0 mm 0 W/m2
04:14 -1.3 °C -2.3 °C 1011.7 hPa Calm   1.6 km/h 93% 0 mm 0 W/m2
04:19 -1.3 °C -2.3 °C 1012.1 hPa Calm   1.6 km/h 93% 0 mm 0 W/m2
04:24 -1.3 °C -2.3 °C 1012.1 hPa NNW 0.3 km/h 4.8 km/h 93% 0 mm 0 W/m2
04:29 -1.3 °C -2.3 °C 1012.1 hPa Calm   4.8 km/h 93% 0 mm 0 W/m2
04:34 -1.3 °C -2.3 °C 1011.7 hPa Calm   4.8 km/h 93% 0 mm 0 W/m2
04:39 -1.3 °C -2.3 °C 1012.1 hPa NNW 0.3 km/h 3.2 km/h 93% 0 mm 0 W/m2
04:44 -1.3 °C -2.3 °C 1012.1 hPa NNW 0.2 km/h 3.2 km/h 93% 0 mm 0 W/m2
04:49 -1.3 °C -2.3 °C 1012.1 hPa Calm   3.2 km/h 93% 0 mm 0 W/m2
04:54 -1.3 °C -2.3 °C 1012.1 hPa Calm   3.2 km/h 93% 0 mm 0 W/m2
04:59 -1.3 °C -2.3 °C 1012.1 hPa Calm   3.2 km/h 93% 0 mm 0 W/m2
05:04 -1.3 °C -2.3 °C 1012.1 hPa NNW 0.5 km/h 4.8 km/h 93% 0 mm 0 W/m2
05:09 -1.3 °C -2.3 °C 1012.1 hPa NNW 0.2 km/h 4.8 km/h 93% 0 mm 0 W/m2
05:14 -1.3 °C -2.3 °C 1012.1 hPa NNW 0.5 km/h 6.4 km/h 93% 0 mm 0 W/m2
05:19 -1.3 °C -2.3 °C 1012.1 hPa NNW 0.3 km/h 6.4 km/h 93% 0 mm 0 W/m2
05:24 -1.3 °C -2.3 °C 1012.1 hPa Calm   6.4 km/h 93% 0 mm 0 W/m2
05:29 -1.3 °C -2.2 °C 1012.1 hPa Calm   6.4 km/h 93% 0 mm 0 W/m2
05:34 -1.2 °C -2.2 °C 1012.1 hPa NNW 0.2 km/h 6.4 km/h 93% 0 mm 0 W/m2
05:39 -1.2 °C -2.2 °C 1012.1 hPa Calm   3.2 km/h 93% 0 mm 0 W/m2
05:44 -1.2 °C -2.2 °C 1012.1 hPa Calm   3.2 km/h 93% 0 mm 0 W/m2
05:49 -1.2 °C -2.2 °C 1012.1 hPa Calm   3.2 km/h 93% 0 mm 0 W/m2
05:54 -1.2 °C -2.2 °C 1012.1 hPa Calm   3.2 km/h 93% 0 mm 0 W/m2
05:59 -1.2 °C -2.2 °C 1012.4 hPa Calm   3.2 km/h 93% 0 mm 0 W/m2
06:04 -1.2 °C -2.2 °C 1012.4 hPa Calm   3.2 km/h 93% 0 mm 0 W/m2
06:09 -1.2 °C -2.2 °C 1012.4 hPa Calm     93% 0 mm 0 W/m2
06:14 -1.2 °C -2.2 °C 1012.8 hPa Calm     93% 0 mm 0 W/m2
06:19 -1.2 °C -2.2 °C 1012.8 hPa NNW 0.2 km/h 3.2 km/h 93% 0 mm 0 W/m2
06:24 -1.2 °C -2.2 °C 1012.8 hPa Calm   3.2 km/h 93% 0 mm 0 W/m2
06:29 -1.2 °C -2.2 °C 1013.1 hPa NNW 0.5 km/h 4.8 km/h 93% 0 mm 0 W/m2
06:34 -1.2 °C -2.2 °C 1013.1 hPa NNW 0.5 km/h 4.8 km/h 93% 0 mm 0 W/m2
06:39 -1.2 °C -2.2 °C 1013.1 hPa NNW 0.2 km/h 4.8 km/h 93% 0 mm 0 W/m2
06:44 -1.2 °C -2.2 °C 1013.1 hPa NNW 1 km/h 4.8 km/h 93% 0 mm 0 W/m2
06:49 -1.2 °C -2.2 °C 1013.1 hPa Calm   4.8 km/h 93% 0 mm 0 W/m2
06:54 -1.2 °C -2.2 °C 1013.1 hPa Calm   4.8 km/h 93% 0 mm 0 W/m2
06:59 -1.1 °C -2.1 °C 1013.1 hPa Calm   4.8 km/h 93% 0 mm 0 W/m2
07:04 -1.1 °C -2 °C 1013.1 hPa NNW 0.3 km/h 4.8 km/h 93% 0 mm 0 W/m2
07:09 -1 °C -2 °C 1013.1 hPa NNW 0.6 km/h 4.8 km/h 93% 0 mm 0 W/m2
07:14 -0.9 °C -1.9 °C 1013.1 hPa Calm   4.8 km/h 93% 0 mm 0 W/m2
07:19 -0.9 °C -1.9 °C 1013.4 hPa NNW 1 km/h 6.4 km/h 93% 0 mm 0 W/m2
07:24 -0.9 °C -1.9 °C 1013.4 hPa NNW 0.2 km/h 6.4 km/h 93% 0 mm 0 W/m2
07:29 -0.9 °C -1.9 °C 1013.4 hPa Calm   6.4 km/h 93% 0 mm 0 W/m2
07:34 -0.9 °C -1.9 °C 1013.4 hPa NNW 0.5 km/h 6.4 km/h 93% 0 mm 0 W/m2
07:39 -0.9 °C -1.9 °C 1013.4 hPa Calm   4.8 km/h 93% 0 mm 0 W/m2
07:44 -0.9 °C -1.9 °C 1013.8 hPa Calm   4.8 km/h 93% 0 mm 0 W/m2
07:49 -0.8 °C -1.8 °C 1013.8 hPa Calm   4.8 km/h 93% 0 mm 5 W/m2
07:54 -0.8 °C -1.8 °C 1013.8 hPa NNW 0.6 km/h 6.4 km/h 93% 0 mm 5 W/m2
07:59 -0.8 °C -1.8 °C 1014.1 hPa NNW 0.8 km/h 6.4 km/h 93% 0 mm 7 W/m2
08:04 -0.8 °C -1.8 °C 1014.1 hPa Calm     93% 0 mm 7 W/m2
08:09 -0.8 °C -1.8 °C 1014.1 hPa NNW 0.2 km/h 3.2 km/h 93% 0 mm 9 W/m2
08:14 -0.7 °C -1.7 °C 1014.1 hPa NNW 1.1 km/h 4.8 km/h 93% 0 mm 9 W/m2
08:19 -0.7 °C -1.7 °C 1014.1 hPa NNW 1.8 km/h 8 km/h 93% 0 mm 9 W/m2
08:24 -0.7 °C -1.7 °C 1014.1 hPa NNW 0.3 km/h 8 km/h 93% 0 mm 11 W/m2
08:29 -0.7 °C -1.8 °C 1014.1 hPa Calm   8 km/h 92.7% 0 mm 11 W/m2
08:34 -0.7 °C -1.7 °C 1014.1 hPa NNW 0.6 km/h 8 km/h 93% 0 mm 12 W/m2
08:39 -0.7 °C -1.7 °C 1014.4 hPa NNW 2.3 km/h 8 km/h 93% 0 mm 14 W/m2
08:44 -0.6 °C -1.7 °C 1014.4 hPa North 0.5 km/h 8 km/h 92.4% 0 mm 16 W/m2
08:49 -0.5 °C -1.7 °C 1014.4 hPa North 1.4 km/h 8 km/h 92% 0 mm 19 W/m2
08:54 -0.4 °C -1.5 °C 1014.8 hPa Calm   8 km/h 92.3% 0 mm 21 W/m2
08:59 -0.3 °C -1.5 °C 1014.8 hPa NNW 1.1 km/h 8 km/h 92% 0 mm 21 W/m2
09:04 -0.3 °C -1.4 °C 1014.8 hPa NNW 1.9 km/h 8 km/h 92% 0 mm 23 W/m2
09:09 -0.2 °C -1.4 °C 1014.8 hPa NNW 0.5 km/h 8 km/h 92% 0 mm 25 W/m2
09:14 -0.2 °C -1.3 °C 1014.8 hPa Calm   8 km/h 92% 0 mm 28 W/m2
09:19 -0.1 °C -1.3 °C 1014.8 hPa NNW 1.3 km/h 8 km/h 91.5% 0 mm 28 W/m2
09:24 0 °C -1.3 °C 1014.8 hPa NNW 0.3 km/h 8 km/h 91% 0 mm 28 W/m2
09:29 0.1 °C -1.2 °C 1014.8 hPa NNW 1.3 km/h 8 km/h 91% 0 mm 32 W/m2
09:34 0.2 °C -1.1 °C 1014.8 hPa NNW 1 km/h 8 km/h 91% 0 mm 30 W/m2
09:39 0.3 °C -1.1 °C 1015.1 hPa NNW 0.2 km/h 4.8 km/h 90.9% 0 mm 33 W/m2
09:44 0.4 °C -0.9 °C 1015.1 hPa NNW 1.4 km/h 8 km/h 90.7% 0 mm 33 W/m2
09:49 0.5 °C -0.9 °C 1015.1 hPa NNW 1.4 km/h 8 km/h 90% 0 mm 33 W/m2
09:54 0.6 °C -0.9 °C 1015.5 hPa NNW 2.9 km/h 11.3 km/h 89.6% 0 mm 26 W/m2
09:59 0.6 °C -1.1 °C 1015.5 hPa NNW 2.4 km/h 11.3 km/h 89% 0 mm 23 W/m2
10:04 0.6 °C -1.1 °C 1015.5 hPa NNW 2.7 km/h 11.3 km/h 89% 0 mm 23 W/m2
10:09 0.5 °C -1.2 °C 1015.8 hPa NNW 3.4 km/h 9.7 km/h 88.3% 0 mm 23 W/m2
10:14 0.5 °C -1.3 °C 1015.8 hPa NNW 4.2 km/h 9.7 km/h 88% 0 mm 21 W/m2
10:19 0.5 °C -1.3 °C 1015.8 hPa North 1.8 km/h 9.7 km/h 88% 0 mm 21 W/m2
10:24 0.6 °C -1.2 °C 1015.8 hPa NNW 2.3 km/h 9.7 km/h 88% 0 mm 21 W/m2
10:29 0.6 °C -1.2 °C 1015.8 hPa NNW 4.7 km/h 11.3 km/h 88% 0 mm 23 W/m2
10:34 0.6 °C -1.2 °C 1015.8 hPa NW 1.1 km/h 11.3 km/h 88% 0 mm 21 W/m2
10:39 0.6 °C -1.1 °C 1015.8 hPa NNW 3.2 km/h 9.7 km/h 88% 0 mm 21 W/m2
10:44 0.7 °C -1.1 °C 1015.8 hPa NNW 1.8 km/h 9.7 km/h 88% 0 mm 23 W/m2
10:49 0.7 °C -1 °C 1015.8 hPa NNW 0.8 km/h 9.7 km/h 88% 0 mm 26 W/m2
10:54 0.8 °C -0.9 °C 1015.8 hPa NNW 0.8 km/h 9.7 km/h 88% 0 mm 32 W/m2
10:59 0.8 °C -1.1 °C 1015.8 hPa North 1.3 km/h 9.7 km/h 87% 0 mm 32 W/m2
11:04 0.9 °C -1 °C 1015.5 hPa NNW 1.8 km/h 9.7 km/h 87% 0 mm 30 W/m2
11:09 1 °C -0.9 °C 1015.5 hPa NNW 4.3 km/h 11.3 km/h 87% 0 mm 28 W/m2
11:14 1.1 °C -0.9 °C 1015.8 hPa NNW 3.1 km/h 11.3 km/h 86.2% 0 mm 28 W/m2
11:19 1.1 °C -0.9 °C 1015.5 hPa NNW 1.4 km/h 11.3 km/h 86% 0.25 mm 28 W/m2
11:24 1.1 °C -1 °C 1015.5 hPa NNW 1.6 km/h 11.3 km/h 85.9% 0.25 mm 30 W/m2
11:29 1.2 °C -0.9 °C 1015.5 hPa NNW 0.8 km/h 11.3 km/h 86% 0.25 mm 30 W/m2
11:34 1.2 °C -0.8 °C 1015.5 hPa NNW 1.4 km/h 11.3 km/h 86% 0.25 mm 33 W/m2
11:39 1.3 °C -0.9 °C 1015.5 hPa NNW 3.4 km/h 8 km/h 85.4% 0.25 mm 33 W/m2
11:44 1.3 °C -0.9 °C 1015.5 hPa NNW 3.4 km/h 9.7 km/h 85% 0.25 mm 32 W/m2
11:49 1.3 °C -0.9 °C 1015.5 hPa NW 1.9 km/h 11.3 km/h 85% 0.25 mm 32 W/m2
11:54 1.3 °C -0.9 °C 1015.5 hPa NNW 3.2 km/h 14.5 km/h 85.4% 0.51 mm 35 W/m2
11:59 1.3 °C -0.9 °C 1015.5 hPa NNW 3.5 km/h 14.5 km/h 85% 0.51 mm 42 W/m2
12:00 1.3 °C -0.9 °C 1015.1 hPa NNW 4.8 km/h 14.5 km/h 85% 0.51 mm 42 W/m2
12:09 1.4 °C -0.9 °C 1015.1 hPa NW 3.7 km/h 9.7 km/h 84.1% 0.51 mm 47 W/m2
12:14 1.6 °C -0.7 °C 1015.5 hPa NW 1.1 km/h 9.7 km/h 84.7% 0.51 mm 44 W/m2
12:19 1.7 °C -0.6 °C 1015.1 hPa NNW 1.1 km/h 9.7 km/h 84.6% 0.76 mm 44 W/m2
12:24 1.9 °C -0.6 °C 1015.1 hPa NNW 2.3 km/h 9.7 km/h 84% 0.76 mm 47 W/m2
12:29 2 °C -0.4 °C 1015.1 hPa NNW 1.3 km/h 9.7 km/h 84% 0.76 mm 54 W/m2
12:34 2.2 °C -0.4 °C 1015.1 hPa NNW 2.3 km/h 9.7 km/h 83.4% 0.76 mm 58 W/m2
12:39 2.3 °C -0.3 °C 1015.1 hPa North 0.8 km/h 9.7 km/h 82.8% 0.51 mm 60 W/m2
12:44 2.4 °C -0.4 °C 1014.8 hPa NNW 5.6 km/h 16.1 km/h 82% 0.76 mm 63 W/m2
12:49 2.4 °C -0.5 °C 1014.8 hPa NNW 2.7 km/h 16.1 km/h 81% 0.76 mm 69 W/m2
12:54 2.5 °C -0.4 °C 1014.8 hPa NNW 1.9 km/h 16.1 km/h 81% 0.76 mm 69 W/m2
12:59 2.6 °C -0.2 °C 1014.8 hPa NNW 6.6 km/h 16.1 km/h 81.7% 0.76 mm 74 W/m2
13:04 2.7 °C -0.3 °C 1014.8 hPa NNW 6 km/h 16.1 km/h 80.8% 0.76 mm 84 W/m2
13:09 2.7 °C -0.2 °C 1014.8 hPa NNW 2.9 km/h 16.1 km/h 81% 0.51 mm 90 W/m2
13:14 2.8 °C -0.1 °C 1014.8 hPa NNW 1.6 km/h 16.1 km/h 81% 0.51 mm 90 W/m2
13:19 2.9 °C 0 °C 1014.8 hPa NNW 3.4 km/h 16.1 km/h 81% 0.51 mm 81 W/m2
13:24 3.1 °C 0 °C 1014.8 hPa North 1.9 km/h 16.1 km/h 80.4% 0.76 mm 93 W/m2
13:29 3.1 °C 0 °C 1014.8 hPa NNW 3.7 km/h 16.1 km/h 80% 0.76 mm 93 W/m2
13:34 3.1 °C -0.1 °C 1014.8 hPa NNW 2.7 km/h 16.1 km/h 80% 0.76 mm 98 W/m2
13:39 3 °C -0.1 °C 1014.8 hPa NNW 6.9 km/h 16.1 km/h 80% 1.02 mm 113 W/m2
13:44 2.9 °C -0.3 °C 1015.1 hPa NNW 3.5 km/h 16.1 km/h 79.6% 1.02 mm 113 W/m2
13:49 2.8 °C -0.2 °C 1015.1 hPa NW 2.4 km/h 16.1 km/h 80.5% 1.02 mm 98 W/m2
13:54 2.8 °C -0.3 °C 1015.1 hPa NW 8 km/h 22.5 km/h 80.2% 1.27 mm 74 W/m2
13:59 2.6 °C -0.6 °C 1015.1 hPa NW 6.3 km/h 22.5 km/h 80% 1.27 mm 56 W/m2
14:04 2.3 °C -0.7 °C 1015.5 hPa NW 3.5 km/h 22.5 km/h 80.2% 1.27 mm 51 W/m2
14:09 2.2 °C -0.7 °C 1015.5 hPa WNW 3.9 km/h 16.1 km/h 81% 1.02 mm 46 W/m2
14:14 2.1 °C -0.8 °C 1015.5 hPa NNW 4 km/h 16.1 km/h 81.3% 1.27 mm 44 W/m2
14:19 2 °C -0.7 °C 1015.5 hPa NW 4 km/h 16.1 km/h 82% 1.27 mm 46 W/m2
14:24 1.9 °C -0.8 °C 1015.5 hPa NW 4.5 km/h 16.1 km/h 82% 1.27 mm 46 W/m2
14:29 1.9 °C -0.8 °C 1015.5 hPa NW 6.3 km/h 20.9 km/h 82% 1.27 mm 47 W/m2
14:34 1.9 °C -0.8 °C 1015.8 hPa NW 7.7 km/h 20.9 km/h 82% 1.27 mm 47 W/m2
14:39 1.8 °C -0.9 °C 1015.8 hPa NW 5.5 km/h 19.3 km/h 82% 0.76 mm 46 W/m2
14:44 1.8 °C -0.9 °C 1015.8 hPa NW 3.9 km/h 19.3 km/h 82% 1.02 mm 42 W/m2
14:49 1.7 °C -1.1 °C 1015.8 hPa NW 2.6 km/h 19.3 km/h 81.8% 1.02 mm 42 W/m2
14:54 1.7 °C -1.1 °C 1015.8 hPa NW 4.3 km/h 19.3 km/h 82% 1.02 mm 44 W/m2
14:59 1.7 °C -1.1 °C 1015.8 hPa NW 5.3 km/h 19.3 km/h 81.7% 1.02 mm 44 W/m2
15:04 1.7 °C -1.1 °C 1016.1 hPa NW 4.8 km/h 19.3 km/h 81.8% 1.02 mm 44 W/m2
15:09 1.7 °C -1.2 °C 1016.1 hPa WNW 3.5 km/h 17.7 km/h 81% 0.51 mm 46 W/m2
15:14 1.7 °C -1.3 °C 1016.1 hPa WNW 1.3 km/h 17.7 km/h 81% 0.51 mm 53 W/m2
15:19 1.7 °C -1.1 °C 1016.1 hPa NNW 1.1 km/h 17.7 km/h 82% 0.51 mm 56 W/m2
15:24 1.7 °C -1.1 °C 1016.1 hPa NNW 1.9 km/h 17.7 km/h 82.2% 0.51 mm 51 W/m2
15:29 1.7 °C -1 °C 1016.1 hPa NNW 1.1 km/h 17.7 km/h 82.2% 0.76 mm 49 W/m2
15:34 1.7 °C -1 °C 1016.1 hPa NNW 3.1 km/h 17.7 km/h 82% 0.76 mm 54 W/m2
15:39 1.8 °C -1.1 °C 1016.1 hPa NNW 2.1 km/h 9.7 km/h 81.3% 0.51 mm 54 W/m2
15:44 1.8 °C -1.1 °C 1016.1 hPa NNW 3.4 km/h 16.1 km/h 81% 0.51 mm 53 W/m2
15:49 1.8 °C -1.2 °C 1016.1 hPa NNW 1.9 km/h 16.1 km/h 81% 0.51 mm 53 W/m2
15:54 1.8 °C -1.1 °C 1016.1 hPa NW 1.9 km/h 16.1 km/h 81% 0.51 mm 54 W/m2
15:59 1.7 °C -1.2 °C 1016.1 hPa NW 3.5 km/h 16.1 km/h 81% 0.51 mm 47 W/m2
16:00 1.7 °C -1.2 °C 1016.1 hPa NW 9.7 km/h 16.1 km/h 81% 0.51 mm 39 W/m2
16:09 1.7 °C -1.2 °C 1016.1 hPa NNW 2.3 km/h 9.7 km/h 81% 0.25 mm 39 W/m2
16:14 1.7 °C -1.2 °C 1016.1 hPa NW 4.2 km/h 11.3 km/h 81% 0.25 mm 33 W/m2
16:19 1.7 °C -1.3 °C 1016.5 hPa NNW 4.3 km/h 11.3 km/h 80.6% 0.25 mm 30 W/m2
16:24 1.6 °C -1.3 °C 1016.5 hPa NW 4.8 km/h 16.1 km/h 81% 0.25 mm 25 W/m2
16:29 1.6 °C -1.4 °C 1016.5 hPa NNW 4.2 km/h 16.1 km/h 80.7% 0.25 mm 21 W/m2
16:34 1.5 °C -1.4 °C 1016.5 hPa NW 4 km/h 16.1 km/h 80.7% 0.25 mm 16 W/m2
16:39 1.4 °C -1.4 °C 1016.5 hPa NW 1.8 km/h 11.3 km/h 81% 0.25 mm 14 W/m2
16:44 1.4 °C -1.5 °C 1016.8 hPa NW 4.5 km/h 11.3 km/h 81% 0.25 mm 11 W/m2
16:49 1.3 °C -1.6 °C 1016.8 hPa NW 1.8 km/h 16.1 km/h 81% 0.25 mm 9 W/m2
16:54 1.3 °C -1.6 °C 1016.8 hPa NW 3.1 km/h 16.1 km/h 81% 0.25 mm 7 W/m2
16:59 1.3 °C -1.6 °C 1016.8 hPa NW 4 km/h 16.1 km/h 81% 0.25 mm 0 W/m2
17:04 1.2 °C -1.7 °C 1016.8 hPa NW 5.5 km/h 17.7 km/h 81% 0.25 mm 0 W/m2
17:09 1.2 °C -1.7 °C 1016.8 hPa NW 4 km/h 17.7 km/h 81% 0.25 mm 0 W/m2
17:14 1.1 °C -1.8 °C 1016.8 hPa NNW 3.5 km/h 17.7 km/h 81% 0.25 mm 0 W/m2
17:19 1.1 °C -1.7 °C 1016.8 hPa NNW 1.8 km/h 17.7 km/h 81.6% 0.25 mm 0 W/m2
17:24 1.1 °C -1.7 °C 1016.8 hPa NNW 2.1 km/h 17.7 km/h 82% 0.25 mm 0 W/m2
17:29 1 °C -1.7 °C 1016.8 hPa NNW 2.1 km/h 17.7 km/h 82% 0.25 mm 0 W/m2
17:34 0.9 °C -1.8 °C 1017.2 hPa NW 3.7 km/h 17.7 km/h 82% 0.25 mm 0 W/m2
17:39 0.9 °C -1.8 °C 1017.2 hPa NNW 2.9 km/h 11.3 km/h 82% 0.25 mm 0 W/m2
17:44 0.9 °C -1.8 °C 1017.2 hPa NNW 1.6 km/h 11.3 km/h 82% 0.25 mm 0 W/m2
17:49 0.8 °C -1.9 °C 1017.2 hPa NNW 1.8 km/h 11.3 km/h 82% 0.25 mm 0 W/m2
17:54 0.8 °C -1.9 °C 1017.2 hPa NNW 1.4 km/h 11.3 km/h 82.1% 0.25 mm 0 W/m2
17:59 0.8 °C -1.8 °C 1017.5 hPa NNW 0.8 km/h 11.3 km/h 83% 0.25 mm 0 W/m2
18:04 0.8 °C -1.8 °C 1017.5 hPa NNW 1.6 km/h 11.3 km/h 83% 0.25 mm 0 W/m2
18:09 0.8 °C -1.8 °C 1017.5 hPa NW 1.4 km/h 9.7 km/h 83% 0 mm 0 W/m2
18:14 0.7 °C -1.8 °C 1017.5 hPa WNW 1.9 km/h 9.7 km/h 83% 0 mm 0 W/m2
18:19 0.7 °C -1.8 °C 1017.8 hPa WNW 4.5 km/h 9.7 km/h 83% 0 mm 0 W/m2
18:24 0.7 °C -1.9 °C 1017.8 hPa NW 3.2 km/h 9.7 km/h 83% 0 mm 0 W/m2
18:29 0.7 °C -1.9 °C 1017.8 hPa NW 2.4 km/h 16.1 km/h 83% 0 mm 0 W/m2
18:34 0.6 °C -1.9 °C 1017.8 hPa NW 1.9 km/h 16.1 km/h 83% 0 mm 0 W/m2
18:39 0.6 °C -2 °C 1017.8 hPa NW 5.3 km/h 19.3 km/h 83% 0 mm 0 W/m2
18:44 0.5 °C -2.2 °C 1017.8 hPa NW 4.8 km/h 19.3 km/h 82.2% 0 mm 0 W/m2
18:49 0.4 °C -2.3 °C 1017.8 hPa NW 2.1 km/h 19.3 km/h 82% 0 mm 0 W/m2
18:54 0.4 °C -2.3 °C 1017.8 hPa NW 5.8 km/h 19.3 km/h 82% 0 mm 0 W/m2
18:59 0.3 °C -2.3 °C 1017.8 hPa NW 2.1 km/h 19.3 km/h 82.1% 0 mm 0 W/m2
19:04 0.3 °C -2.2 °C 1017.8 hPa NW 1.8 km/h 19.3 km/h 83% 0 mm 0 W/m2
19:09 0.3 °C -2.2 °C 1017.8 hPa NNW 4.5 km/h 14.5 km/h 83% 0 mm 0 W/m2
19:14 0.3 °C -2.4 °C 1017.8 hPa NNW 5.3 km/h 17.7 km/h 82% 0 mm 0 W/m2
19:19 0.2 °C -2.5 °C 1017.8 hPa NW 3.2 km/h 17.7 km/h 82% 0 mm 0 W/m2
19:24 0.2 °C -2.6 °C 1017.8 hPa NW 3.5 km/h 17.7 km/h 82% 0 mm 0 W/m2
19:29 0.1 °C -2.6 °C 1017.8 hPa NW 2.3 km/h 17.7 km/h 82% 0 mm 0 W/m2
19:34 0.1 °C -2.6 °C 1017.8 hPa NW 0.2 km/h 17.7 km/h 82% 0 mm 0 W/m2
19:39 0.1 °C -2.7 °C 1017.8 hPa NNW 2.9 km/h 8 km/h 82% 0 mm 0 W/m2
19:44 0.1 °C -2.7 °C 1017.8 hPa NNW 2.1 km/h 8 km/h 82% 0 mm 0 W/m2
19:49 0 °C -2.7 °C 1018.2 hPa NW 2.3 km/h 14.5 km/h 82% 0 mm 0 W/m2
19:54 0 °C -2.7 °C 1018.2 hPa Calm   14.5 km/h 82% 0 mm 0 W/m2
19:59 0 °C -2.7 °C 1018.2 hPa NW 1.1 km/h 14.5 km/h 82% 0 mm 0 W/m2
20:00 0 °C -2.7 °C 1018.2 hPa Calm   14.5 km/h 82% 0 mm 0 W/m2
20:09 -0.1 °C -2.6 °C 1018.2 hPa NNW 2.7 km/h 14.5 km/h 82.9% 0 mm 0 W/m2
20:14 -0.1 °C -2.8 °C 1018.2 hPa NNW 4.8 km/h 14.5 km/h 82% 0 mm 0 W/m2
20:19 -0.1 °C -2.8 °C 1018.2 hPa NNW 1.9 km/h 14.5 km/h 82% 0 mm 0 W/m2
20:24 -0.1 °C -2.8 °C 1018.2 hPa NW 1.9 km/h 14.5 km/h 82% 0 mm 0 W/m2
20:29 -0.1 °C -2.8 °C 1018.2 hPa NW 3.5 km/h 14.5 km/h 82% 0 mm 0 W/m2
20:34 -0.1 °C -2.8 °C 1018.2 hPa NW 0.5 km/h 14.5 km/h 82% 0 mm 0 W/m2
20:39 -0.1 °C -2.8 °C 1018.5 hPa NW 1.3 km/h 6.4 km/h 82% 0 mm 0 W/m2
20:44 -0.1 °C -2.8 °C 1018.5 hPa NNW 2.4 km/h 9.7 km/h 82% 0 mm 0 W/m2
20:49 -0.1 °C -2.8 °C 1018.2 hPa NNW 3.4 km/h 16.1 km/h 82% 0 mm 0 W/m2
20:54 -0.1 °C -2.8 °C 1018.2 hPa Calm   16.1 km/h 82% 0 mm 0 W/m2
20:59 -0.1 °C -2.8 °C 1018.2 hPa North 1.3 km/h 16.1 km/h 82% 0 mm 0 W/m2
21:04 -0.1 °C -2.8 °C 1018.2 hPa NNW 1.8 km/h 16.1 km/h 82% 0 mm 0 W/m2
21:09 -0.1 °C -2.8 °C 1018.2 hPa NNW 4.3 km/h 11.3 km/h 82% 0 mm 0 W/m2
21:14 -0.2 °C -2.8 °C 1018.2 hPa NNW 3.7 km/h 12.9 km/h 82% 0 mm 0 W/m2
21:19 -0.2 °C -2.9 °C 1017.8 hPa NW 3.5 km/h 12.9 km/h 82% 0 mm 0 W/m2
21:24 -0.2 °C -2.9 °C 1017.8 hPa NW 1.1 km/h 12.9 km/h 82% 0 mm 0 W/m2
21:29 -0.2 °C -2.9 °C 1017.8 hPa NNW 1 km/h 12.9 km/h 82% 0 mm 0 W/m2
21:34 -0.2 °C -2.9 °C 1018.2 hPa NW 3.5 km/h 12.9 km/h 82% 0 mm 0 W/m2
21:39 -0.2 °C -2.9 °C 1018.2 hPa NW 4 km/h 12.9 km/h 82% 0 mm 0 W/m2
21:44 -0.3 °C -2.9 °C 1017.8 hPa NNW 2.1 km/h 12.9 km/h 82% 0 mm 0 W/m2
21:49 -0.3 °C -2.9 °C 1017.8 hPa NNW 2.3 km/h 12.9 km/h 82% 0 mm 0 W/m2
21:54 -0.3 °C -2.9 °C 1017.8 hPa NNW 1.9 km/h 12.9 km/h 82% 0 mm 0 W/m2
21:59 -0.3 °C -3 °C 1017.8 hPa North 1.4 km/h 12.9 km/h 82% 0 mm 0 W/m2
22:04 -0.3 °C -3 °C 1017.8 hPa NNW 3.2 km/h 12.9 km/h 82% 0 mm 0 W/m2
22:09 -0.3 °C -3.1 °C 1017.8 hPa NW 4.2 km/h 14.5 km/h 82% 0 mm 0 W/m2
22:14 -0.4 °C -3.1 °C 1017.8 hPa NW 2.3 km/h 16.1 km/h 82% 0 mm 0 W/m2
22:19 -0.4 °C -3.1 °C 1017.8 hPa NW 1.1 km/h 16.1 km/h 82% 0 mm 0 W/m2
22:24 -0.4 °C -3.1 °C 1017.8 hPa NW 0.8 km/h 16.1 km/h 82% 0 mm 0 W/m2
22:29 -0.4 °C -3.1 °C 1017.8 hPa Calm   16.1 km/h 82% 0 mm 0 W/m2
22:34 -0.4 °C -3.1 °C 1017.8 hPa NW 1 km/h 16.1 km/h 82% 0 mm 0 W/m2
22:39 -0.4 °C -3.1 °C 1017.5 hPa Calm   6.4 km/h 82% 0 mm 0 W/m2
22:44 -0.4 °C -3.1 °C 1017.5 hPa Calm   6.4 km/h 82% 0 mm 0 W/m2
22:49 -0.4 °C -3.2 °C 1017.5 hPa NW 1.1 km/h 11.3 km/h 82% 0 mm 0 W/m2
22:54 -0.5 °C -3.2 °C 1017.5 hPa NW 1.4 km/h 11.3 km/h 82% 0 mm 0 W/m2
22:59 -0.5 °C -3.2 °C 1017.8 hPa NW 0.5 km/h 11.3 km/h 82% 0 mm 0 W/m2
23:00 -0.5 °C -3.2 °C 1017.5 hPa Calm   11.3 km/h 82% 0 mm 0 W/m2
23:09 -0.5 °C -3.2 °C 1017.5 hPa Calm     82% 0 mm 0 W/m2
23:14 -0.5 °C -3.2 °C 1017.5 hPa Calm     82% 0 mm 0 W/m2
23:19 -0.6 °C -3.2 °C 1017.5 hPa NW 1.3 km/h 8 km/h 82% 0 mm 0 W/m2
23:24 -0.6 °C -3.2 °C 1017.5 hPa NNW 3.5 km/h 9.7 km/h 82% 0 mm 0 W/m2
23:29 -0.6 °C -3.2 °C 1017.5 hPa NW 4.5 km/h 11.3 km/h 82% 0 mm 0 W/m2
23:34 -0.6 °C -3.3 °C 1017.5 hPa NW 2.9 km/h 11.3 km/h 82% 0 mm 0 W/m2
23:39 -0.6 °C -3.3 °C 1017.5 hPa NW 2.4 km/h 16.1 km/h 82% 0 mm 0 W/m2
23:44 -0.6 °C -3.3 °C 1017.5 hPa NW 2.3 km/h 16.1 km/h 82% 0 mm 0 W/m2
23:49 -0.7 °C -3.3 °C 1017.5 hPa NW 1.9 km/h 16.1 km/h 82% 0 mm 0 W/m2
23:54 -0.7 °C -3.3 °C 1017.5 hPa NNW 2.9 km/h 16.1 km/h 82% 0 mm 0 W/m2
23:59 -0.7 °C -3.3 °C 1017.5 hPa NNW 2.7 km/h 16.1 km/h 82% 0 mm 0 W/m2
Hartford County Weather
Compliments of Weather Underground - 4 mb